KCIKMI Weather Reports


Display with metric or nautical units.
time (UTC)temp
F
wind
direction
speed
MPH
gust
MPH
rain 1hr
in
rain 24hr
in
rain mn
in
humidity
%
barometer
mb
20260506101005 58 168 1.0 6.0 0.00 0.00 0.00 87 1009.9
20260506100505 58 197 2.0 8.0 0.00 0.00 0.00 87 1009.8
20260506100005 58 197 1.0 8.0 0.00 0.00 0.00 87 1009.8
20260506095505 58 201 2.0 5.0 0.00 0.00 0.00 87 1009.7
20260506095004 58 195 0.0 8.0 0.00 0.00 0.00 87 1009.7
20260506094504 58 190 1.0 8.0 0.00 0.00 0.00 87 1009.8
20260506094003 58 221 1.0 6.0 0.00 0.00 0.00 87 1009.7
20260506093502 58 197 1.0 5.0 0.00 0.00 0.00 87 1009.7
20260506093004 58 209 1.0 5.0 0.00 0.00 0.00 86 1009.7
20260506092502 58 182 1.0 4.0 0.00 0.00 0.00 86 1009.8
20260506092002 58 155 0.0 6.0 0.00 0.00 0.00 86 1009.8
20260506091505 58 206 3.0 6.0 0.00 0.00 0.00 86 1009.8
20260506091000 58 204 1.0 5.0 0.00 0.00 0.00 86 1009.8
20260506090501 58 214 2.0 5.0 0.00 0.00 0.00 86 1009.8
20260506090100 58 190 2.0 6.0 0.00 0.00 0.00 85 1009.8
20260506090002 58 178 2.0 6.0 0.00 0.00 0.00 85 1009.8
20260506085600 58 216 2.0 7.0 0.00 0.00 0.00 85 1009.9
20260506085100 59 202 1.0 7.0 0.00 0.00 0.00 85 1010.0
20260506084602 59 195 3.0 7.0 0.00 0.00 0.00 85 1010.0
20260506084103 59 182 2.0 7.0 0.00 0.00 0.00 85 1010.0
20260506083558 59 237 2.0 6.0 0.00 0.00 0.00 85 1010.0
20260506083104 59 205 1.0 7.0 0.00 0.00 0.00 85 1010.0
20260506082600 59 188 1.0 10.0 0.00 0.00 0.00 84 1010.1
20260506082056 59 180 3.0 10.0 0.00 0.00 0.00 84 1010.1
20260506081556 59 188 2.0 9.0 0.00 0.00 0.00 84 1010.0
20260506081056 59 195 1.0 9.0 0.00 0.00 0.00 84 1010.1
20260506080556 59 209 2.0 9.0 0.00 0.00 0.00 84 1010.0
20260506073053 60 220 2.0 6.0 0.00 0.00 0.00 83 1009.9
20260506072553 60 199 1.0 5.0 0.00 0.00 0.00 83 1010.0
20260506072052 60 180 1.0 5.0 0.00 0.00 0.00 83 1009.9
20260506071551 60 202 1.0 8.0 0.00 0.00 0.00 83 1009.9
20260506071051 60 186 1.0 8.0 0.00 0.00 0.00 83 1009.8
20260506070551 60 203 2.0 8.0 0.00 0.00 0.00 83 1009.8
20260506062049 60 176 2.0 9.0 0.00 0.00 0.00 82 1009.8
20260506061549 60 179 1.0 9.0 0.00 0.00 0.00 82 1009.8
20260506061049 60 188 3.0 9.0 0.00 0.00 0.00 82 1009.8
20260506060549 60 203 3.0 11.0 0.00 0.00 0.00 81 1009.8
20260506051043 60 184 2.0 7.0 0.00 0.00 0.00 81 1010.2
20260506050542 60 190 3.0 6.0 0.00 0.00 0.00 81 1010.4
20260506045041 60 212 2.0 6.0 0.00 0.00 0.00 80 1010.5
20260506044546 60 182 2.0 7.0 0.00 0.00 0.00 80 1010.6
20260506044042 60 183 1.0 7.0 0.00 0.00 0.00 79 1010.6
20260506043539 60 197 2.0 6.0 0.00 0.00 0.00 79 1010.6
20260506043039 60 212 2.0 6.0 0.00 0.00 0.00 79 1010.5
20260506042539 60 194 2.0 5.0 0.00 0.00 0.00 79 1010.6
20260506042037 60 216 1.0 8.0 0.00 0.00 0.00 78 1010.5
20260506041536 60 202 2.0 8.0 0.00 0.00 0.00 78 1010.4
20260506041036 60 187 1.0 7.0 0.00 0.00 0.00 77 1010.4
20260506040534 61 190 2.0 7.0 0.00 0.00 0.00 76 1010.3
20260506040051 61 170 0.0 7.0 0.00 0.00 0.00 76 1010.3
20260506035532 61 176 3.0 7.0 0.00 0.00 0.00 76 1010.2
20260506035032 61 173 2.0 6.0 0.00 0.00 0.00 75 1010.2
20260506034534 61 195 1.0 6.0 0.00 0.00 0.00 75 1010.3
20260506034032 62 196 2.0 7.0 0.00 0.00 0.00 75 1010.1
20260506033531 61 185 2.0 7.0 0.00 0.00 0.00 75 1010.2
20260506033031 61 185 1.0 6.0 0.00 0.00 0.00 75 1010.0
20260506032531 61 220 2.0 5.0 0.00 0.00 0.00 75 1010.1
20260506032033 61 188 1.0 4.0 0.00 0.00 0.00 75 1010.1
20260506031544 61 184 0.0 5.0 0.00 0.00 0.00 75 1010.0
20260506031031 60 187 1.0 9.0 0.00 0.00 0.00 75 1010.1
20260506030530 60 223 1.0 9.0 0.00 0.00 0.00 75 1010.2
20260506030030 60 196 2.0 5.0 0.00 0.00 0.00 75 1010.2
20260506025530 60 203 1.0 6.0 0.00 0.00 0.00 75 1010.1
20260506025030 60 181 1.0 6.0 0.00 0.00 0.00 74 1010.2
20260506024530 60 184 0.0 5.0 0.00 0.00 0.00 74 1010.2
20260506024031 60 201 1.0 4.0 0.00 0.00 0.00 73 1010.2
20260506023531 61 185 2.0 5.0 0.00 0.00 0.00 73 1010.1
20260506023030 61 183 2.0 5.0 0.00 0.00 0.00 73 1010.1
20260506022529 60 216 0.0 5.0 0.00 0.00 0.00 73 1010.0
20260506022029 61 228 0.0 5.0 0.00 0.00 0.00 72 1010.0
20260506021529 61 183 0.0 7.0 0.00 0.00 0.00 72 1010.0
20260506021031 61 172 2.0 7.0 0.00 0.00 0.00 72 1010.0
20260506020532 61 190 1.0 5.0 0.00 0.00 0.00 71 1010.0
20260506020028 61 185 2.0 6.0 0.00 0.00 0.00 71 1010.0
20260506015528 62 196 3.0 8.0 0.00 0.00 0.00 71 1010.0
20260506015028 61 212 2.0 8.0 0.00 0.00 0.00 71 1010.0
20260506014531 61 182 1.0 8.0 0.00 0.00 0.00 71 1009.9
20260506014027 61 193 1.0 7.0 0.00 0.00 0.00 72 1009.8
20260506013527 61 201 2.0 7.0 0.00 0.00 0.00 71 1009.8
20260506013027 61 202 1.0 7.0 0.00 0.00 0.00 72 1009.8
20260506012527 61 213 2.0 7.0 0.00 0.00 0.00 72 1009.9
20260506012029 61 202 2.0 6.0 0.00 0.00 0.00 72 1009.8
20260506011528 61 190 1.0 5.0 0.00 0.00 0.00 73 1009.7
20260506011026 61 171 1.0 5.0 0.00 0.00 0.00 73 1009.7
20260506010526 61 165 1.0 5.0 0.00 0.00 0.00 73 1009.6
20260506010026 61 195 2.0 6.0 0.00 0.00 0.00 73 1009.6
20260506005526 61 185 3.0 9.0 0.00 0.00 0.00 72 1009.4
20260506005024 61 180 3.0 9.0 0.00 0.00 0.00 73 1009.3
20260506004527 61 176 2.0 9.0 0.00 0.00 0.00 73 1009.3
20260506004029 61 216 1.0 9.0 0.00 0.00 0.00 73 1009.4
20260506003524 61 207 2.0 7.0 0.00 0.00 0.00 73 1009.3
20260506003024 61 190 1.0 4.0 0.00 0.00 0.00 73 1009.3
20260506002523 61 202 1.0 4.0 0.00 0.00 0.00 73 1009.2
20260506002024 61 202 1.0 4.0 0.00 0.00 0.00 73 1009.1
20260506001524 61 197 1.0 5.0 0.00 0.00 0.00 73 1009.1
20260506001024 61 195 2.0 5.0 0.00 0.00 0.00 72 1009.0
20260506000523 61 215 0.0 4.0 0.00 0.00 0.00 72 1009.0
20260506000024 61 206 1.0 4.0 0.00 0.00 0.00 72 1008.8
20260505235525 61 211 1.0 4.0 0.00 0.00 0.00 72 1008.5
20260505235022 61 204 1.0 4.0 0.00 0.00 0.00 73 1008.5
20260505234522 61 214 1.0 4.0 0.00 0.00 0.00 72 1008.3
20260505234021 61 204 0.0 8.0 0.00 0.00 0.00 72 1008.2
20260505233521 62 197 2.0 8.0 0.00 0.00 0.00 71 1008.1
20260505233022 62 176 2.0 8.0 0.00 0.00 0.00 71 1008.0
20260505232521 62 190 2.0 7.0 0.00 0.00 0.00 71 1008.1
20260505232022 62 205 2.0 9.0 0.00 0.00 0.00 71 1008.0
20260505231528 62 186 3.0 9.0 0.00 0.00 0.00 70 1007.9
20260505231021 63 203 3.0 10.0 0.00 0.00 0.00 70 1008.0
20260505230520 63 169 4.0 10.0 0.00 0.00 0.00 69 1008.1
20260505230027 63 170 2.0 8.0 0.00 0.00 0.00 69 1008.1
20260505225522 63 180 2.0 9.0 0.00 0.00 0.00 69 1008.1
20260505225020 63 172 2.0 9.0 0.00 0.00 0.00 68 1008.1
20260505224520 64 192 3.0 10.0 0.00 0.00 0.00 68 1008.1
20260505224019 64 263 3.0 10.0 0.00 0.00 0.00 68 1008.0
20260505223525 64 194 2.0 7.0 0.00 0.00 0.00 68 1008.0
20260505223021 64 193 1.0 10.0 0.00 0.00 0.00 68 1007.9
20260505222519 64 180 4.0 10.0 0.00 0.00 0.00 67 1007.8
20260505222019 65 223 2.0 7.0 0.00 0.00 0.00 67 1007.8
20260505221519 65 188 2.0 10.0 0.00 0.00 0.00 67 1007.7
20260505221018 65 204 2.0 10.0 0.00 0.00 0.00 66 1007.8
20260505220518 66 214 2.0 8.0 0.00 0.00 0.00 66 1007.9
20260505220020 66 204 3.0 6.0 0.00 0.00 0.00 65 1007.8
20260505215619 66 202 1.0 6.0 0.00 0.00 0.00 65 1007.7
20260505215018 66 195 1.0 6.0 0.00 0.00 0.00 65 1007.7
20260505214517 66 234 1.0 6.0 0.00 0.00 0.00 65 1007.7
20260505214016 66 221 1.0 6.0 0.00 0.00 0.00 65 1007.7
20260505213516 66 158 2.0 5.0 0.00 0.00 0.00 66 1007.7
20260505213016 66 201 1.0 4.0 0.00 0.00 0.00 67 1007.6
20260505212516 66 197 1.0 5.0 0.00 0.00 0.00 67 1007.6
20260505212017 66 175 1.0 5.0 0.00 0.00 0.00 66 1007.7
20260505211517 66 166 1.0 5.0 0.00 0.00 0.00 65 1007.6
20260505211015 67 195 1.0 5.0 0.00 0.00 0.00 63 1007.6
20260505210516 68 230 0.0 4.0 0.00 0.00 0.00 62 1007.5
20260505210023 69 184 1.0 4.0 0.00 0.00 0.00 61 1007.6
20260505205515 70 225 0.0 4.0 0.00 0.00 0.00 60 1007.2
20260505205014 71 201 0.0 6.0 0.00 0.00 0.00 60 1007.2
20260505204514 71 171 1.0 7.0 0.00 0.00 0.00 58 1007.1
20260505204013 72 204 2.0 7.0 0.00 0.00 0.00 58 1007.3
20260505203512 72 228 2.0 7.0 0.00 0.00 0.00 58 1007.5
20260505203012 72 209 1.0 6.0 0.00 0.00 0.00 59 1007.4
20260505202512 71 231 1.0 8.0 0.00 0.00 0.00 59 1007.5
20260505202014 71 206 1.0 8.0 0.00 0.00 0.00 59 1007.5
20260505201512 71 206 1.0 8.0 0.00 0.00 0.00 59 1007.5
20260505201011 72 202 0.0 5.0 0.00 0.00 0.00 59 1007.6
20260505200514 72 327 1.0 6.0 0.00 0.00 0.00 59 1007.5
20260505200022 72 202 2.0 6.0 0.00 0.00 0.00 58 1007.5
20260505195514 72 223 1.0 6.0 0.00 0.00 0.00 58 1007.3
20260505195009 73 207 2.0 6.0 0.00 0.00 0.00 57 1007.4
20260505194509 73 171 1.0 6.0 0.00 0.00 0.00 56 1007.5
20260505194007 73 207 1.0 4.0 0.00 0.00 0.00 56 1007.6
20260505193507 74 192 0.0 4.0 0.00 0.00 0.00 56 1007.7
20260505193005 74 211 1.0 4.0 0.00 0.00 0.00 56 1007.7
20260505192505 73 189 0.0 5.0 0.00 0.00 0.00 58 1007.7
20260505192005 73 209 0.0 5.0 0.00 0.00 0.00 57 1007.7
20260505191504 73 198 1.0 4.0 0.00 0.00 0.00 58 1007.8
20260505191009 73 202 0.0 4.0 0.00 0.00 0.00 58 1007.8
20260505190504 72 209 1.0 5.0 0.00 0.00 0.00 58 1007.9
20260505190004 73 216 0.0 5.0 0.00 0.00 0.00 58 1007.8
20260505185503 73 157 1.0 4.0 0.00 0.00 0.00 58 1007.8
20260505185002 73 217 1.0 4.0 0.00 0.00 0.00 58 1007.8
20260505184502 73 191 1.0 3.0 0.00 0.00 0.00 58 1007.8
20260505184001 73 207 1.0 5.0 0.00 0.00 0.00 58 1007.8
20260505183603 73 204 1.0 5.0 0.00 0.00 0.00 58 1007.8
20260505183100 73 223 1.0 4.0 0.00 0.00 0.00 60 1008.0
20260505182600 72 189 0.0 4.0 0.00 0.00 0.00 60 1008.0
20260505182100 72 254 1.0 4.0 0.00 0.00 0.00 61 1008.0
20260505181601 73 216 0.0 4.0 0.00 0.00 0.00 60 1008.0
20260505181059 73 202 1.0 4.0 0.00 0.00 0.00 59 1008.1
20260505180558 73 228 0.0 4.0 0.00 0.00 0.00 58 1008.0
20260505180059 74 230 0.0 4.0 0.00 0.00 0.00 57 1008.0
20260505175559 74 183 0.0 5.0 0.00 0.00 0.00 56 1008.1
20260505175057 75 206 1.0 5.0 0.00 0.00 0.00 56 1008.1
20260505174603 74 158 1.0 6.0 0.00 0.00 0.00 56 1008.2
20260505174057 74 188 1.0 6.0 0.00 0.00 0.00 55 1008.2
20260505173555 74 192 1.0 6.0 0.00 0.00 0.00 56 1008.3
20260505173056 74 219 1.0 5.0 0.00 0.00 0.00 56 1008.4
20260505172555 74 140 1.0 5.0 0.00 0.00 0.00 56 1008.4
20260505172054 75 222 1.0 7.0 0.00 0.00 0.00 54 1008.4
20260505171554 75 221 1.0 7.0 0.00 0.00 0.00 56 1008.4
20260505171053 75 228 0.0 5.0 0.00 0.00 0.00 55 1008.4
20260505170552 75 198 2.0 5.0 0.00 0.00 0.00 54 1008.4
20260505170052 75 209 0.0 4.0 0.00 0.00 0.00 57 1008.4
20260505165549 75 233 0.0 4.0 0.00 0.00 0.00 58 1008.5
20260505165047 74 173 1.0 4.0 0.00 0.00 0.00 59 1008.6
20260505164610 73 208 0.0 4.0 0.00 0.00 0.00 61 1008.7
20260505164047 72 249 0.0 4.0 0.00 0.00 0.00 60 1008.8
20260505163542 72 207 0.0 4.0 0.00 0.00 0.00 62 1008.9
20260505163050 71 204 1.0 4.0 0.00 0.00 0.00 61 1008.9
20260505162539 70 205 0.0 3.0 0.00 0.00 0.00 64 1008.9
20260505162038 69 220 0.0 3.0 0.00 0.00 0.00 64 1009.0
20260505161537 69 219 0.0 5.0 0.00 0.00 0.00 68 1009.1
20260505161036 68 209 0.0 5.0 0.00 0.00 0.00 67 1009.1
20260505160534 67 194 1.0 4.0 0.00 0.00 0.00 67 1009.2
20260505153030 65 200 2.0 4.0 0.00 0.00 0.00 69 1009.2
20260505152531 65 196 1.0 4.0 0.00 0.00 0.00 69 1009.2
20260505152030 65 195 2.0 5.0 0.00 0.00 0.00 69 1009.2
20260505151529 65 175 1.0 5.0 0.00 0.00 0.00 69 1009.2
20260505151030 66 162 1.0 5.0 0.00 0.00 0.00 68 1009.1
20260505150529 66 224 0.0 3.0 0.00 0.00 0.00 68 1009.2
20260505140522 66 218 0.0 3.0 0.00 0.00 0.00 69 1009.6
20260505125009 61 220 1.0 5.0 0.00 0.00 0.00 76 1009.9
20260505124509 61 193 1.0 4.0 0.00 0.00 0.00 77 1010.0
20260505124006 60 194 1.0 5.0 0.00 0.00 0.00 77 1009.9
20260505123505 60 201 1.0 5.0 0.00 0.00 0.00 78 1009.9
20260505123003 59 199 0.0 4.0 0.00 0.00 0.00 79 1009.7
20260505122502 59 211 1.0 4.0 0.00 0.00 0.00 79 1009.6
20260505122002 59 174 1.0 3.0 0.00 0.00 0.00 80 1009.7
20260505121600 58 192 1.0 5.0 0.00 0.00 0.00 80 1009.8
20260505121103 58 195 1.0 5.0 0.00 0.00 0.00 81 1009.7
20260505120559 58 190 1.0 4.0 0.00 0.00 0.00 81 1009.7
20260505120116 57 192 1.0 4.0 0.00 0.00 0.00 82 1009.7
20260505115555 57 187 1.0 4.0 0.00 0.00 0.00 82 1009.6
20260505115058 57 196 2.0 7.0 0.00 0.00 0.00 82 1009.7
20260505114553 56 186 1.0 7.0 0.00 0.00 0.00 83 1009.7
20260505114052 56 190 0.0 4.0 0.00 0.00 0.00 84 1009.7
20260505113550 55 195 0.0 4.0 0.00 0.00 0.00 84 1009.6
20260505113054 55 179 0.0 4.0 0.00 0.00 0.00 84 1009.7
20260505112552 55 183 1.0 4.0 0.00 0.00 0.00 85 1009.7
20260505112048 54 185 0.0 3.0 0.00 0.00 0.00 85 1009.7
20260505111547 54 199 0.0 4.0 0.00 0.00 0.00 86 1009.7
20260505111047 54 198 0.0 4.0 0.00 0.00 0.00 86 1009.7
20260505110545 53 217 0.0 2.0 0.00 0.00 0.00 87 1009.6
20260505102039 51 209 0.0 0.0 0.00 0.00 0.00 91 1009.4
20260505101539 51 209 0.0 0.0 0.00 0.00 0.00 91 1009.3